Houston, TX

3:41 AM CST on December 10, 2016 (GMT -0600)
Hobby

Weather History for KHOU - October, 2012

Change the Weather History Date:

Friday, October 5, 2012

  Actual Average Record
Temperature  
Mean Temperature 77 °F 74 °F  
Max Temperature 88 °F 85 °F 94 °F (2006)
Min Temperature 66 °F 64 °F 41 °F (1975)
Degree Days  
Heating Degree Days 0 0  
Month to date heating degree days 0 0  
Since 1 July heating degree days 0 1  
Cooling Degree Days 12 10  
Month to date cooling degree days 44 51  
Year to date cooling degree days 3243 2876  
Growing Degree Days 26 (Base 50)    
Moisture  
Dew Point 66 °F    
Average Humidity 73    
Maximum Humidity 100    
Minimum Humidity 46    
Precipitation  
Precipitation 0.00 in 0.17 in 2.90 in (1960)
Month to date precipitation T 0.82  
Year to date precipitation 37.82 36.81  
Sea Level Pressure  
Sea Level Pressure 30.07 in    
Wind  
Wind Speed 5 mph (SSE)    
Max Wind Speed 14 mph    
Max Gust Speed 17 mph    
Visibility 10 miles    
Events      
T = Trace of Precipitation, MM = Missing Value Source: NWS Daily Summary

Daily Weather History Graph

Daily Weather History Graph

Search for Another Location

Airport or City:

Trip Planner

Search our weather history database for the weather conditions in past years. The results will help you decide how hot, cold, wet, or windy it might be!

Date:

Astronomy

Oct. 05, 2012 Rise Set
Actual Time 7:16 AM CDT 7:01 PM CDT
Civil Twilight 6:53 AM CDT 7:25 PM CDT
Nautical Twilight 6:25 AM CDT 7:52 PM CDT
Astronomical Twilight 5:57 AM CDT 8:20 PM CDT
Moon 10:46 PM CDT (10/5) 12:04 PM CDT (10/5)
Length of Visible Light 12h 31m
Length of Day
11h 44m
Waning Gibbous, 74% of the Moon is Illuminated
Oct 5
Waning Gibbous
Oct 8
Last Quarter
Oct 15
New
Oct 21
First Quarter
Oct 29
Full

Hourly Weather History & Observations

Time (CDT) Temp. Heat Index Dew Point Humidity Pressure Visibility Wind Dir Wind Speed Gust Speed Precip Events Conditions
12:53 AM 70.0 °F - 66.9 °F 90% 30.12 in 10.0 mi SE 4.6 mph - N/A   Clear
1:53 AM 69.1 °F - 66.9 °F 93% 30.11 in 10.0 mi SE 3.5 mph - N/A   Clear
2:53 AM 69.8 °F - 66.2 °F 88% 30.09 in 10.0 mi SE 4.6 mph - N/A   Clear
3:53 AM 69.1 °F - 66.9 °F 93% 30.09 in 10.0 mi SE 4.6 mph - N/A   Clear
4:53 AM 69.1 °F - 66.9 °F 93% 30.09 in 10.0 mi ESE 3.5 mph - N/A   Clear
5:53 AM 68.0 °F - 66.0 °F 93% 30.10 in 10.0 mi SE 4.6 mph - N/A   Clear
6:53 AM 66.9 °F - 66.0 °F 97% 30.11 in 10.0 mi SE 4.6 mph - N/A   Clear
7:53 AM 66.9 °F - 66.0 °F 97% 30.12 in 10.0 mi SE 3.5 mph - N/A   Clear
8:53 AM 73.0 °F - 68.0 °F 84% 30.13 in 10.0 mi SSE 3.5 mph - N/A   Scattered Clouds
9:53 AM 78.1 °F - 66.9 °F 68% 30.13 in 10.0 mi SSE 5.8 mph - N/A   Scattered Clouds
10:53 AM 81.0 °F 83.3 °F 66.9 °F 62% 30.13 in 10.0 mi South 8.1 mph - N/A   Scattered Clouds
11:53 AM 82.0 °F 84.1 °F 66.0 °F 58% 30.12 in 10.0 mi SSE 8.1 mph - N/A   Partly Cloudy
12:53 PM 84.0 °F 86.3 °F 66.0 °F 55% 30.10 in 10.0 mi South 9.2 mph - N/A   Partly Cloudy
1:53 PM 86.0 °F 87.6 °F 64.9 °F 49% 30.07 in 10.0 mi Variable 4.6 mph - N/A   Scattered Clouds
2:53 PM 86.0 °F 87.6 °F 64.9 °F 49% 30.04 in 10.0 mi SSW 10.4 mph - N/A   Scattered Clouds
3:53 PM 84.9 °F 86.6 °F 64.9 °F 51% 30.02 in 10.0 mi SE 6.9 mph - N/A   Partly Cloudy
4:53 PM 84.0 °F 86.3 °F 66.0 °F 55% 30.00 in 10.0 mi South 8.1 mph - N/A   Scattered Clouds
5:53 PM 82.9 °F 85.0 °F 66.0 °F 56% 30.00 in 10.0 mi South 9.2 mph - N/A   Partly Cloudy
6:53 PM 78.1 °F - 66.0 °F 66% 30.00 in 10.0 mi SSE 10.4 mph - N/A   Partly Cloudy
7:53 PM 75.9 °F - 66.0 °F 71% 30.00 in 10.0 mi SSE 6.9 mph - N/A   Clear
8:53 PM 73.0 °F - 66.9 °F 81% 30.01 in 10.0 mi SSE 5.8 mph - N/A   Clear
9:53 PM 72.0 °F - 66.9 °F 84% 30.02 in 10.0 mi South 3.5 mph - N/A   Clear
10:53 PM 70.0 °F - 66.0 °F 87% 30.02 in 10.0 mi South 4.6 mph - N/A   Clear
11:53 PM 69.1 °F - 66.9 °F 93% 30.02 in 10.0 mi Calm Calm - N/A   Clear